Location: Altenst�hlen
(53.5567°N, 8.9425°E)
Time: 16:19:20
(UTC+00:00)

STARLINK-58 - Pass Details

Date: 23 October 2019
Orbit: 548 x 551 km, 53.0° (Epoch: 17 November)

Event Time Altitude Azimuth Distance (km) Brightness Sun altitude
Rises 18:44:03 0° 283° (WNW) 2,722 8.6 -23.3°
Reaches altitude 10° 18:46:20 10° 279° (W) 1,827 7.4 -23.7°
Enters shadow 18:50:08 52° 217° (SW) 689 4.1 -24.2°
